FW7782 Weather Reports


time (UTC)temp
C
wind
direction
speed
KPH
gust
KPH
rain 1hr
cm
rain 24hr
cm
rain mn
cm
humidity
%
barometer
mb
20260510210056 19 0 0.0 1.6 0.00 0.00 0.00 68 1012.6
20260510204557 20 260 0.0 1.6 0.00 0.00 0.00 66 1012.5
20260510203052 20 0 0.0 4.8 0.00 0.00 0.00 66 1012.2
20260510201551 20 146 1.6 8.0 0.00 0.00 0.00 65 1011.7
20260510200051 20 186 4.8 11.3 0.00 0.00 0.00 64 1011.7
20260510194556 20 167 6.4 11.3 0.00 0.00 0.00 65 1011.6
20260510193049 20 0 0.0 4.8 0.00 0.00 0.00 64 1011.7
20260510191547 20 0 0.0 6.4 0.00 0.00 0.00 64 1011.5
20260510190054 21 219 4.8 14.5 0.00 0.00 0.00 63 1011.2
20260510184552 21 229 8.0 17.7 0.00 0.00 0.00 62 1011.3
20260510183059 21 158 4.8 16.1 0.00 0.00 0.00 61 1011.1
20260510181617 22 221 9.7 17.7 0.00 0.00 0.00 60 1011.2
20260510180103 22 135 9.7 19.3 0.00 0.00 0.00 58 1011.1
20260510174600 22 193 9.7 20.9 0.00 0.00 0.00 56 1011.3
20260510173054 23 233 9.7 22.5 0.00 0.00 0.00 55 1011.2
20260510171549 23 215 12.9 25.7 0.00 0.00 0.00 54 1011.1
20260510170049 23 162 12.9 33.8 0.00 0.00 0.00 53 1011.1
20260510164551 23 151 16.1 30.6 0.00 0.00 0.00 53 1011.2
20260510163055 23 193 16.1 37.0 0.00 0.00 0.00 52 1011.1
20260510161555 24 244 19.3 33.8 0.00 0.00 0.00 51 1011.1
20260510160049 24 248 17.7 30.6 0.00 0.00 0.00 54 1011.0
20260510154546 23 188 19.3 33.8 0.00 0.00 0.00 55 1011.0
20260510153104 23 167 20.9 38.6 0.00 0.00 0.00 54 1011.1
20260510151549 23 217 22.5 37.0 0.00 0.00 0.00 56 1011.2
20260510150048 24 167 14.5 29.0 0.00 0.00 0.00 55 1011.4
20260510144551 24 136 16.1 38.6 0.00 0.00 0.00 55 1011.6
20260510143059 24 148 20.9 37.0 0.00 0.00 0.00 56 1011.6
20260510141557 25 160 19.3 33.8 0.00 0.00 0.00 52 1011.6
20260510140052 25 195 17.7 30.6 0.00 0.00 0.00 53 1011.9
20260510134555 23 157 12.9 22.5 0.00 0.00 0.00 58 1012.1
20260510133051 22 137 16.1 29.0 0.00 0.00 0.00 74 1012.4
20260510131550 22 135 17.7 30.6 0.00 0.00 0.00 71 1012.6
20260510130052 22 127 16.1 25.7 0.00 0.00 0.00 68 1012.8
20260510124551 22 134 17.7 25.7 0.00 0.00 0.00 74 1012.9
20260510123052 22 159 17.7 27.4 0.00 0.00 0.00 72 1013.1
20260510121545 21 140 16.1 29.0 0.00 0.00 0.00 75 1013.4
20260510120053 21 136 12.9 24.1 0.00 0.00 0.00 78 1013.4
20260510114554 20 96 12.9 24.1 0.00 0.05 0.00 83 1013.4
20260510113054 20 132 11.3 22.5 0.00 0.05 0.00 81 1014.0
20260510111548 20 132 14.5 22.5 0.00 0.05 0.00 78 1014.1
20260510110051 20 131 16.1 22.5 0.00 0.05 0.00 76 1014.1
20260510104553 20 115 14.5 20.9 0.00 0.13 0.00 75 1014.3
20260510103055 21 133 8.0 14.5 0.00 0.13 0.00 71 1014.2
20260510101600 21 155 3.2 11.3 0.00 0.13 0.00 70 1014.5
20260510100118 21 130 3.2 9.7 0.00 0.13 0.00 71 1014.4
20260510094556 21 103 3.2 11.3 0.00 0.64 0.00 72 1014.7
20260510093100 21 89 1.6 6.4 0.00 0.64 0.00 74 1014.7
20260510091556 20 129 1.6 8.0 0.00 0.64 0.00 74 1014.7
20260510090111 20 131 1.6 6.4 0.00 0.64 0.00 75 1015.0
20260510084549 20 160 1.6 6.4 0.00 1.47 0.00 77 1014.9
20260510083100 19 108 1.6 6.4 0.00 1.47 0.00 79 1015.0
20260510081553 18 0 0.0 3.2 0.00 1.47 0.00 81 1015.2
20260510080054 18 257 0.0 4.8 0.00 1.47 0.00 83 1015.0
20260510074551 17 252 0.0 6.4 0.00 1.96 0.00 87 1015.2
20260510073051 16 289 1.6 6.4 0.00 1.96 0.00 87 1015.2
20260510071557 17 313 3.2 6.4 0.00 1.96 0.00 85 1015.0
20260510070050 16 0 0.0 3.2 0.00 1.96 0.00 89 1014.8
20260510064546 16 0 0.0 6.4 0.00 2.77 0.00 90 1014.8
20260510063052 15 306 0.0 6.4 0.00 2.77 0.00 91 1014.9
20260510061553 15 303 1.6 6.4 0.00 2.77 0.00 92 1014.8
20260510060053 14 335 1.6 4.8 0.00 2.77 0.00 93 1014.7
20260510054551 13 13 4.8 6.4 0.00 3.00 0.00 95 1014.4
20260510053056 12 320 1.6 4.8 0.00 3.00 0.00 94 1014.4
20260510051555 12 307 3.2 6.4 0.00 3.00 0.00 95 1014.2
20260510050054 12 323 0.0 4.8 0.00 3.00 0.00 95 1014.5
20260510044552 12 307 1.6 4.8 0.00 3.00 0.00 94 1014.4
20260510043057 12 307 1.6 4.8 0.00 3.00 0.00 94 1014.4
20260510041551 13 318 0.0 1.6 0.00 3.00 0.00 94 1014.3
20260510034556 13 0 0.0 1.6 0.00 3.00 0.00 93 1014.0
20260510033114 13 318 0.0 4.8 0.00 3.00 0.00 92 1013.9
20260510031558 13 0 0.0 1.6 0.00 3.00 0.00 91 1013.9
20260510030052 13 0 0.0 4.8 0.00 3.00 0.00 91 1013.9
20260510024556 14 14 3.2 4.8 0.00 3.00 0.00 92 1013.8
20260510023045 13 36 3.2 6.4 0.00 3.00 0.00 92 1013.8
20260510021553 14 20 3.2 6.4 0.00 3.00 0.00 91 1013.8
20260510020053 14 46 6.4 9.7 0.00 3.00 0.00 90 1013.8
20260510014551 15 43 4.8 8.0 0.00 3.00 0.00 90 1013.6
20260510013055 15 41 3.2 6.4 0.00 3.00 0.00 91 1013.8
20260510011555 15 49 3.2 6.4 0.00 3.00 0.00 91 1013.8
20260510010052 15 42 3.2 6.4 0.00 3.00 0.00 91 1013.8
20260510004556 15 0 0.0 0.0 0.00 3.00 0.00 91 1014.3
20260510003110 15 0 0.0 0.0 0.00 3.00 0.00 91 1014.3
20260510001556 16 0 0.0 0.0 0.00 3.00 0.00 91 1013.9
20260509234601 16 0 0.0 1.6 0.00 3.00 0.00 91 1014.5
20260509233054 15 0 0.0 0.0 0.00 3.00 0.00 90 1014.4
20260509231555 16 0 0.0 0.0 0.00 3.00 0.00 89 1014.4
20260509230057 16 0 0.0 0.0 0.00 3.00 0.00 88 1014.5
20260509224553 16 0 0.0 1.6 0.00 3.00 0.00 88 1014.7
20260509223050 16 139 1.6 4.8 0.00 3.00 0.00 87 1014.6
20260509221555 16 164 1.6 4.8 0.00 3.00 0.00 86 1014.6
20260509220057 16 214 1.6 8.0 0.00 3.00 0.00 86 1014.7
20260509214549 16 134 0.0 6.4 0.00 3.00 3.00 84 1014.7
20260509213059 16 129 1.6 4.8 0.00 3.00 3.00 83 1014.5
20260509211601 16 163 3.2 8.0 0.00 3.00 3.00 82 1014.6